Location: Dealu Mare
(46.0500°N, 22.8167°E)
Time: 21:38:13
(UTC+00:00)

Cosmos 1470 Rocket - Pass Details

Date: 15 January 2026
Orbit: 597 x 626 km, 82.5° (Epoch: 10 February)

Event Time Altitude Azimuth Distance (km) Brightness Sun altitude
Rises 05:04:48 0° 178° (S) 2,843 7.3 -10.6°
Reaches altitude 10° 05:07:01 10° 175° (S) 1,941 6.5 -10.2°
Maximum altitude 05:11:14 60° 95° (E) 689 4.1 -9.6°
Drops below altitude 10° 05:15:29 10° 16° (NNE) 1,948 6.1 -8.9°
Sets 05:17:43 0° 13° (NNE) 2,854 6.9 -8.5°
